This is the latest recevied weather packets stored in our database for station/object KD2FGL-13. If no packets are shown the sender has not sent any weather packets the latest 10 day(s).
| Time | Temp. | Humidity | Pressure | Rain* | Wind** | Luminosity | Snow |
|---|---|---|---|---|---|---|---|
| 1777362922 | 7.78° C | 57% | 1024.6 hPa | 0 mm | - | - | - |
| 1777362314 | 7.78° C | 57% | 1024.6 hPa | 0 mm | - | - | - |
| 1777362010 | 7.78° C | 57% | 1024.6 hPa | 0 mm | - | - | - |
| 1777361403 | 8.33° C | 56% | 1024.6 hPa | 0 mm | - | - | - |
| 1777360795 | 8.33° C | 56% | 1024.5 hPa | 0 mm | - | - | - |
| 1777359883 | 8.33° C | 55% | 1024.4 hPa | 0 mm | - | - | - |
| 1777358972 | 8.89° C | 55% | 1024.5 hPa | 0 mm | - | - | - |
| 1777358667 | 8.89° C | 55% | 1024.6 hPa | 0 mm | - | - | - |
| 1777357755 | 9.44° C | 54% | 1024.7 hPa | 0 mm | - | - | - |
| 1777356844 | 9.44° C | 53% | 1024.9 hPa | 0 mm | - | - | - |
| 1777356539 | 9.44° C | 53% | 1024.9 hPa | 0 mm | - | - | - |
| 1777356235 | 10° C | 53% | 1025.1 hPa | 0 mm | - | - | - |
| 1777355932 | 10° C | 53% | 1024.9 hPa | 0 mm | - | - | - |
| 1777354412 | 10.56° C | 51% | 1024.9 hPa | 0 mm | - | - | - |
| 1777354108 | 10.56° C | 51% | 1024.8 hPa | 0 mm | - | - | - |
| 1777353804 | 10.56° C | 51% | 1024.8 hPa | 0 mm | - | - | - |
| 1777353197 | 11.11° C | 50% | 1025 hPa | 0 mm | - | - | - |
| 1777352892 | 11.11° C | 50% | 1025.2 hPa | 0 mm | - | - | - |
| 1777352285 | 11.67° C | 50% | 1025.4 hPa | 0 mm | - | - | - |
| 1777351374 | 11.67° C | 49% | 1025.7 hPa | 0 mm | - | - | - |
| 1777349550 | 12.78° C | 47% | 1026 hPa | 0 mm | - | - | - |
| 1777349245 | 12.78° C | 46% | 1026.2 hPa | 0 mm | - | - | - |
| 1777348639 | 12.78° C | 46% | 1026.2 hPa | 0 mm | - | - | - |
| 1777348030 | 13.33° C | 45% | 1026.4 hPa | 0 mm | - | - | - |
| 1777347422 | 13.33° C | 45% | 1026.6 hPa | 0 mm | - | - | - |
* Rain since midnight (hover to see other rain measurements)
** Current wind speed in m/s (hover to see current wind gust speed)